Starlink 3859

operational
NORAD ID: 52470 Int'l Des: 2022-049 Owner: SPXS Country: US Constellation: starlink
LEOCIRCULAR

Starlink 3859について

説明を読み込み中...

リアルタイム位置

3D地球を読み込み中...

次回通過

高度履歴

Altitude vs Time

uPlot chart will show altitude changes over time

軌道要素

1 52470U 22049V 25304.14358175 -.00000070 00000-0 13716-4 0 9993
2 52470 53.2179 280.6752 0001439 92.4436 267.6721 15.08849568192694
Epoch: Oct 31, 2025 • Age: 40 hours

現在のステータス

高度 545.7 km
速度 7.59 km/s
衛星直下点 -19.67°S, 69.68°W
打ち上げ日 May 6, 2022
運用期間 3.4 years
タイプ internet

技術仕様

分類 Payload
質量 297.00 kg
乾燥質量 220.00 kg
総質量 297.00 kg
長さ 0.20 m
直径 2.80 m
スパン 9.00 m
形状 Box + pan
製造者 SPXS
バスタイプ Starlink
フェーズステータス In Orbit
所有者/国 SPXS/US

大規模コンステレーション

Loading constellations...